Iron Mountain, MI

11:04 AM CST on November 23, 2017 (GMT -0600)
Ford

Weather History for KIMT - February, 2012

Change the Weather History Date:

Wednesday, February 29, 2012

  Actual Average Record
Temperature  
Mean Temperature 29 °F -  
Max Temperature 30 °F - 53 °F (2004)
Min Temperature 28 °F - -11 °F (1980)
Degree Days  
Heating Degree Days 36    
Moisture  
Dew Point 28 °F    
Average Humidity 93    
Maximum Humidity 100    
Minimum Humidity 88    
Precipitation  
Precipitation 0.17 in - - ()
Sea Level Pressure  
Sea Level Pressure 29.60 in    
Wind  
Wind Speed 11 mph (ENE)    
Max Wind Speed 17 mph    
Max Gust Speed 26 mph    
Visibility 1 miles    
Events Fog , Snow    
Averages and records for this station are not official NWS values.
T = Trace of Precipitation, MM = Missing Value Source: NWS Daily Summary

Daily Weather History Graph

Daily Weather History Graph

Search for Another Location

Airport or City:

Trip Planner

Search our weather history database for the weather conditions in past years. The results will help you decide how hot, cold, wet, or windy it might be!

Date:

Astronomy

Feb. 29, 2012 Rise Set
Actual Time 6:31 AM CST 5:38 PM CST
Civil Twilight 6:02 AM CST 6:08 PM CST
Nautical Twilight 5:27 AM CST 6:42 PM CST
Astronomical Twilight 4:53 AM CST 7:17 PM CST
Moon 9:58 AM CST (2/29) 12:49 AM CST (2/29)
Length of Visible Light 12h 06m
Length of Day
11h 06m
Waxing Crescent, 47% of the Moon is Illuminated
Feb 29
Waxing Crescent
Feb 29
First Quarter
Mar 8
Full
Mar 14
Last Quarter
Mar 22
New

Hourly Weather History & Observations

Time (CST) Temp. Windchill Dew Point Humidity Pressure Visibility Wind Dir Wind Speed Gust Speed Precip Events Conditions
12:12 AM 28.4 °F 19.7 °F 26.6 °F 93% 29.99 in 0.8 mi ESE 9.2 mph 17.3 mph 0.00 in Snow Light Snow
12:31 AM 28.4 °F 19.1 °F 28.4 °F 100% 29.96 in 1.0 mi East 10.4 mph - 0.00 in Snow Light Snow
12:35 AM 28.4 °F 20.4 °F 28.4 °F 100% 29.96 in 1.0 mi East 8.1 mph - 0.00 in Snow Light Snow
12:51 AM 30.2 °F 20.8 °F 28.4 °F 93% 29.95 in 1.5 mi ESE 11.5 mph - 0.00 in Snow Light Snow
12:54 AM 30.0 °F 21.1 °F 28.0 °F 92% 30.00 in 1.2 mi ESE 10.4 mph - 0.00 in Snow Light Snow
1:54 AM 30.0 °F 21.1 °F 28.0 °F 92% 29.94 in 1.0 mi East 10.4 mph 20.7 mph 0.00 in Snow Light Snow
2:28 AM 30.2 °F 21.3 °F 28.4 °F 93% 29.87 in 0.8 mi ESE 10.4 mph 20.7 mph 0.00 in Snow Light Snow
2:54 AM 30.0 °F 21.1 °F 28.0 °F 92% 29.90 in 0.2 mi ESE 10.4 mph - 0.01 in Fog , Snow Heavy Snow
3:05 AM 30.2 °F 20.8 °F 28.4 °F 93% 29.84 in 0.5 mi East 11.5 mph 18.4 mph 0.00 in Fog , Snow Snow
3:54 AM 30.0 °F 21.1 °F 28.0 °F 92% 29.83 in 1.0 mi East 10.4 mph 20.7 mph 0.01 in Snow Light Snow
4:11 AM 30.2 °F 21.9 °F 28.4 °F 93% 29.76 in 0.8 mi East 9.2 mph 19.6 mph 0.00 in Snow Light Snow
4:54 AM 30.0 °F 20.5 °F 28.0 °F 92% 29.77 in 0.8 mi ESE 11.5 mph 20.7 mph 0.01 in Snow Light Snow
5:01 AM 30.2 °F 19.8 °F 28.4 °F 93% 29.71 in 1.0 mi East 13.8 mph 21.9 mph 0.00 in Snow Light Snow
5:22 AM 30.2 °F 21.3 °F 28.4 °F 93% 29.69 in 0.5 mi East 10.4 mph 19.6 mph 0.00 in Fog , Snow Snow
5:33 AM 30.2 °F 20.2 °F 28.4 °F 93% 29.67 in 0.5 mi East 12.7 mph 18.4 mph 0.01 in Fog , Snow Snow
5:54 AM 30.0 °F 21.1 °F 28.0 °F 92% 29.70 in 0.5 mi ESE 10.4 mph 20.7 mph 0.02 in Fog , Snow Snow
6:05 AM 30.2 °F 20.2 °F 28.4 °F 93% 29.65 in 0.5 mi East 12.7 mph 20.7 mph 0.00 in Fog , Snow Snow
6:26 AM 30.2 °F 19.3 °F 28.4 °F 93% 29.64 in 0.2 mi ESE 15.0 mph 20.7 mph 0.00 in Fog , Snow Snow
6:34 AM 30.2 °F 18.9 °F 28.4 °F 93% 29.63 in 0.5 mi ESE 16.1 mph 24.2 mph 0.01 in Fog , Snow Snow
6:54 AM 30.0 °F 19.1 °F 28.0 °F 92% 29.66 in 0.2 mi East 15.0 mph 23.0 mph 0.01 in Fog , Snow Snow
7:11 AM 30.2 °F 21.3 °F 28.4 °F 93% 29.59 in 0.5 mi East 10.4 mph 26.5 mph 0.00 in Fog , Snow Snow
7:19 AM 30.2 °F 19.3 °F 28.4 °F 93% 29.59 in 0.2 mi East 15.0 mph 26.5 mph 0.01 in Fog , Snow Snow
7:54 AM 30.0 °F 19.1 °F 28.9 °F 96% 29.66 in 0.2 mi ESE 15.0 mph 24.2 mph 0.01 in Fog , Snow Heavy Snow
8:54 AM 30.0 °F 19.5 °F 28.9 °F 96% 29.63 in 0.2 mi East 13.8 mph 25.3 mph 0.04 in Fog , Snow Heavy Snow
9:20 AM 30.2 °F 19.3 °F 28.4 °F 93% 29.56 in 0.2 mi East 15.0 mph 24.2 mph 0.01 in Fog , Snow Snow
9:44 AM 30.2 °F 18.9 °F 28.4 °F 93% 29.55 in 0.5 mi East 16.1 mph 24.2 mph 0.01 in Fog , Snow Snow
9:54 AM 30.9 °F 21.2 °F 28.9 °F 92% 29.60 in 0.5 mi East 12.7 mph 25.3 mph 0.01 in Fog , Snow Snow
10:08 AM 30.2 °F 19.8 °F 28.4 °F 93% 29.54 in 0.2 mi ESE 13.8 mph 25.3 mph 0.00 in Fog , Snow Snow
10:38 AM 30.2 °F 18.5 °F 28.4 °F 93% 29.52 in 0.5 mi East 17.3 mph 25.3 mph 0.00 in Fog , Snow Light Snow
10:54 AM 30.9 °F 21.2 °F 28.9 °F 92% 29.56 in 0.5 mi East 12.7 mph 24.2 mph 0.01 in Fog , Snow Light Snow
11:54 AM 30.9 °F 20.2 °F 28.9 °F 92% 29.52 in 0.8 mi East 15.0 mph 23.0 mph 0.00 in Snow Light Snow
12:03 PM 30.2 °F 21.3 °F 28.4 °F 93% 29.47 in 1.0 mi East 10.4 mph 21.9 mph 0.00 in Snow Light Snow
12:11 PM 30.2 °F 21.3 °F 28.4 °F 93% 29.46 in 0.5 mi East 10.4 mph 20.7 mph 0.00 in Fog , Snow Light Snow
12:45 PM 30.2 °F 21.3 °F 28.4 °F 93% 29.44 in 1.5 mi East 10.4 mph 19.6 mph 0.01 in Snow Light Snow
12:54 PM 30.9 °F 22.2 °F 28.9 °F 92% 29.48 in 0.8 mi East 10.4 mph 20.7 mph 0.02 in Snow Light Snow
1:54 PM 30.9 °F 22.8 °F 28.9 °F 92% 29.46 in 0.5 mi ENE 9.2 mph 16.1 mph 0.00 in Fog , Snow Light Snow
2:54 PM 30.9 °F 25.2 °F 30.0 °F 96% 29.44 in 0.5 mi ENE 5.8 mph - 0.01 in Fog , Snow Light Snow
3:39 PM 30.2 °F 22.6 °F 28.4 °F 93% 29.39 in 0.2 mi ENE 8.1 mph 17.3 mph 0.01 in Fog , Snow Snow
3:54 PM 30.9 °F 23.5 °F 28.9 °F 92% 29.44 in 0.5 mi East 8.1 mph - 0.01 in Fog , Snow Light Snow
4:49 PM 30.2 °F 24.3 °F 28.4 °F 93% 29.40 in 1.0 mi ENE 5.8 mph - 0.00 in Snow Light Snow
4:54 PM 30.9 °F 23.5 °F 28.9 °F 92% 29.44 in 1.2 mi ENE 8.1 mph - 0.00 in Snow Light Snow
5:19 PM 30.2 °F 21.9 °F 28.4 °F 93% 29.40 in 2.0 mi ENE 9.2 mph - 0.00 in Snow Light Snow
5:27 PM 30.2 °F 23.4 °F 28.4 °F 93% 29.40 in 1.8 mi ENE 6.9 mph - 0.00 in Snow Light Snow
5:54 PM 30.9 °F 22.8 °F 28.9 °F 92% 29.45 in 2.0 mi NE 9.2 mph 18.4 mph 0.00 in Snow Light Snow
6:12 PM 30.2 °F 22.6 °F 28.4 °F 93% 29.41 in 1.5 mi NE 8.1 mph - 0.00 in Snow Light Snow
7:54 PM 28.9 °F 22.8 °F 27.0 °F 92% 29.47 in 1.0 mi NE 5.8 mph - 0.00 in Snow Light Snow
8:06 PM 28.4 °F 21.2 °F 26.6 °F 93% 29.43 in 1.8 mi NNE 6.9 mph 16.1 mph 0.00 in Snow Light Snow
8:11 PM 28.4 °F 21.2 °F 26.6 °F 93% 29.43 in 2.0 mi NNE 6.9 mph - 0.00 in Snow Light Snow
8:16 PM 28.4 °F 21.2 °F 26.6 °F 93% 29.44 in 2.0 mi NNE 6.9 mph - 0.00 in Snow Light Snow
8:26 PM 28.4 °F 20.4 °F 26.6 °F 93% 29.44 in 1.5 mi NNE 8.1 mph - 0.00 in Snow Light Snow
8:54 PM 28.9 °F 22.8 °F 27.0 °F 92% 29.49 in 1.5 mi NNE 5.8 mph - 0.00 in Snow Light Snow
9:04 PM 28.4 °F 22.2 °F 26.6 °F 93% 29.45 in 1.5 mi NE 5.8 mph - 0.00 in Snow Light Snow
9:12 PM 28.4 °F 20.4 °F 26.6 °F 93% 29.45 in 2.0 mi NNE 8.1 mph - 0.00 in Snow Light Snow
9:29 PM 28.4 °F 21.2 °F 26.6 °F 93% 29.46 in 3.0 mi North 6.9 mph - 0.00 in Snow Light Snow
9:32 PM 28.4 °F 21.2 °F 26.6 °F 93% 29.46 in 2.5 mi North 6.9 mph - 0.00 in Snow Light Snow
9:51 PM 28.4 °F 19.7 °F 26.6 °F 93% 29.46 in 4.0 mi NNE 9.2 mph - 0.00 in Snow Light Snow
10:54 PM 28.9 °F 19.8 °F 26.1 °F 89% 29.54 in 10.0 mi North 10.4 mph - N/A   Overcast
11:54 PM 28.0 °F 18.6 °F 25.0 °F 88% 29.57 in 10.0 mi North 10.4 mph - N/A   Overcast